This demonstration page uses our WeatherBlox Daily Observations layout. Learn more.

Left ArrowRight Arrow

34.74481, -87.66753

Hourly Observations for December 15, 2019

Temp ( °F °C ) Dew Point ( °F °C ) Humidity (%) Winds ( mph kmh ) Pressure ( in mb ) Visibility ( mi km ) Precip ( " mm )
12:53 am 00:53 Mostly Cloudy 46 7.8 43 6.1 89 89 Calm 29.98 1015 8 13 0.00 0.00
1:53 am 01:53 Mostly Clear 46 7.8 42 5.6 86 86 NNW 3 6 29.99 1016 9 14 0.00 0.00
2:53 am 02:53 Clear 46 7.8 42 5.6 86 86 Calm 30.01 1016 10 16 0.00 0.00
3:53 am 03:53 Clear 45 7.2 42 5.6 90 90 Calm 30.02 1017 9 14 0.00 0.00
4:53 am 04:53 Mostly Cloudy with Mist and Fog 43 6.1 41 5 93 93 Calm 30.04 1017 6 10 0.00 0.00
5:53 am 05:53 Partly Cloudy with Mist and Fog 43 6.1 41 5 93 93 E 3 6 30.04 1017 6 10 0.00 0.00
6:53 am 06:53 Partly Cloudy with Mist and Fog 43 6.1 41 5 93 93 SE 3 6 30.07 1018 6 10 0.00 0.00
7:53 am 07:53 Partly Cloudy with Mist and Fog 45 7.2 42 5.6 90 90 E 3 6 30.08 1019 5 8 0.00 0.00
8:53 am 08:53 Sunny 50 10 43 6.1 77 77 SE 8 13 30.08 1019 9 14 0.00 0.00
9:53 am 09:53 Mostly Cloudy 54 12.2 43 6.1 67 67 SE 8 13 30.08 1019 10 16 0.00 0.00
10:53 am 10:53 Sunny 57 13.9 45 7.2 64 64 SSE 9 15 30.06 1018 10 16 0.00 0.00
11:53 am 11:53 Mostly Sunny 61 16.1 47 8.3 60 60 S 10 17 30.02 1017 10 16 0.00 0.00
12:11 pm 12:11 Mostly Cloudy 60 15.6 47 8.3 62 62 SSE 12 19 30.02 1016 10 16 0.00 0.00
12:53 pm 12:53 Cloudy 58 14.4 47 8.3 67 67 SSE 8 13 30.00 1016 10 16 0.00 0.00
1:03 pm 13:03 Cloudy 58 14.4 48 8.9 70 70 SSE 12 19 30.00 1016 10 16 0.00 0.00
1:53 pm 13:53 Cloudy 59 15 48 8.9 67 67 SSE 12 19 29.97 1015 10 16 0.00 0.00
2:16 pm 14:16 Cloudy 58 14.4 48 8.9 70 70 SSE 12 19 29.98 1015 10 16 0.00 0.00
2:53 pm 14:53 Cloudy 58 14.4 49 9.4 72 72 SE 10 17 29.97 1015 10 16 0.00 0.00
3:53 pm 15:53 Cloudy 59 15 50 10 72 72 SE 8 13 29.96 1015 10 16 0.00 0.00
4:33 pm 16:33 Cloudy 59 15 51 10.6 75 75 SE 9 15 29.95 1014 10 16 0.00 0.00
4:50 pm 16:50 Cloudy 59 15 52 11 77 77 SSE 9 15 29.96 1014 10 16 0.00 0.00
4:53 pm 16:53 Cloudy 59 15 51 10.6 75 75 SSE 9 15 29.96 1014 10 16 0.00 0.00
5:10 pm 17:10 Cloudy 60 15.6 51 10.6 72 72 SSE 13 20 29.96 1014 10 16 0.00 0.00
5:41 pm 17:41 Cloudy 59 15 52 11.1 78 78 SSE 7 11 29.96 1014 10 16 0.00 0.00
5:51 pm 17:51 Cloudy 59 15 52 11 77 77 SSE 6 9 29.97 1015 10 16 0.00 0.00
5:53 pm 17:53 Cloudy 59 15 52 11.1 78 78 SSE 7 11 29.96 1015 10 16 0.00 0.00
6:01 pm 18:01 Cloudy 59 15 52 11.1 78 78 SSE 7 11 29.97 1015 10 16 0.00 0.00
6:53 pm 18:53 Cloudy 60 15.6 53 11.7 78 78 ESE 5 7 29.97 1015 10 16 0.00 0.00
7:53 pm 19:53 Cloudy 58 14.4 53 11.7 84 84 E 3 6 29.98 1015 10 16 0.00 0.00
8:53 pm 20:53 Cloudy 58 14.4 53 11.7 84 84 E 5 7 29.99 1016 10 16 0.00 0.00
9:19 pm 21:19 Cloudy 60 15.6 54 12.2 80 80 SSE 10 17 29.98 1015 10 16 0.00 0.00
9:53 pm 21:53 Cloudy 61 16.1 55 12.8 81 81 SSE 13 20 29.95 1014 10 16 0.00 0.00
10:53 pm 22:53 Mostly Cloudy 62 16.7 56 13.3 80 80 S 15 24 29.93 1014 10 16 0.00 0.00
11:33 pm 23:33 Cloudy 62 16.7 56 13.3 80 80 S 13 20 29.94 1014 10 16 0.00 0.00
11:53 pm 23:53 Cloudy 62 16.7 57 13.9 84 84 SSW 14 22 29.93 1014 10 16 0.00 0.00

Powered by AerisWeather